Location: Rounton
(54.4000°N, 1.3500°W)
Time: 22:38:44
(UTC+00:00)

Explorer 7 - Pass Details

Date: 30 November 2021
Orbit: 483 x 674 km, 50.3° (Epoch: 17 January)

Event Time Altitude Azimuth Distance (km) Brightness Sun altitude
Rises 06:36:45 0° 194° (SSW) 2,760 10.5 -11.6°
Reaches altitude 10° 06:40:27 10° 162° (SSE) 1,815 10.1 -11.1°
Maximum altitude 06:41:52 12° 141° (SE) 1,699 10.3 -10.9°
Drops below altitude 10° 06:43:13 10° 122° (ESE) 1,775 10.9 -10.7°
Sets 06:46:46 0° 88° (E) 2,629 11.6 -10.2°
